Location: Unspecified
(0.0000°N, 0.0000°E)
Time: 06:03:54
(UTC+00:00)

Vanguard 2 Rocket - Pass Details

Date: 05 October 2023
Orbit: 552 x 3312 km, 32.9° (Epoch: 06 December)

Event Time Altitude Azimuth Distance (km) Brightness Sun altitude
Rises 13:26:04 0° 317° (NW) 6,984 11.6 65.2°
Reaches altitude 10° 13:31:49 10° 328° (NNW) 6,162 11.4 63.8°
Maximum altitude 13:48:15 30° 22° (NNE) 4,650 10.7 59.7°
Drops below altitude 10° 14:02:27 10° 77° (ENE) 5,400 10.6 56.2°
Sets 14:06:56 0° 88° (E) 6,050 10.8 55.1°
